CW1621 Weather Reports


time (UTC)temp
C
wind
direction
speed
KPH
gust
KPH
rain 1hr
cm
rain 24hr
cm
rain mn
cm
humidity
%
barometer
mb
20260510141603 11 120 8.0 11.3 0.00 0.00 0.00 70 1018.3
20260510140603 11 114 9.7 11.3 0.00 0.00 0.00 70 1017.8
20260510135603 10 113 9.7 12.9 0.00 0.00 0.00 72 1017.8
20260510135103 10 115 8.0 9.7 0.00 0.00 0.00 73 1018.0
20260510134603 10 113 6.4 9.7 0.00 0.00 0.00 74 1018.0
20260510134103 9 111 8.0 9.7 0.00 0.00 0.00 74 1018.0
20260510133603 9 114 8.0 9.7 0.00 0.00 0.00 75 1018.1
20260510133103 9 114 8.0 9.7 0.00 0.00 0.00 75 1018.1
20260510132603 8 110 4.8 8.0 0.00 0.00 0.00 76 1018.5
20260510132103 8 110 8.0 9.7 0.00 0.00 0.00 77 1018.6
20260510131603 8 113 8.0 9.7 0.00 0.00 0.00 78 1018.6
20260510130603 7 112 8.0 9.7 0.00 0.00 0.00 78 1018.7
20260510125603 7 111 8.0 8.0 0.00 0.00 0.00 78 1018.8
20260510125103 7 111 8.0 9.7 0.00 0.00 0.00 78 1018.7
20260510124103 7 110 3.2 4.8 0.00 0.00 0.00 78 1018.8
20260510123603 7 108 3.2 4.8 0.00 0.00 0.00 78 1018.8
20260510123104 7 90 4.8 4.8 0.00 0.00 0.00 77 1018.8
20260510122605 7 90 3.2 4.8 0.00 0.00 0.00 76 1018.9
20260510121103 7 90 6.4 8.0 0.00 0.00 0.00 77 1018.8
20260510120604 7 90 4.8 8.0 0.00 0.00 0.00 77 1018.7
20260510120104 7 121 3.2 4.8 0.00 0.00 0.00 77 1018.7
20260510115603 7 121 3.2 4.8 0.00 0.00 0.00 77 1018.8
20260510115103 7 121 0.0 4.8 0.00 0.00 0.00 76 1018.8
20260510114603 7 121 3.2 4.8 0.00 0.00 0.00 76 1018.8
20260510114103 7 121 3.2 4.8 0.00 0.00 0.00 77 1018.8
20260510113604 7 121 1.6 4.8 0.00 0.00 0.00 76 1018.9
20260510113104 7 121 4.8 4.8 0.00 0.00 0.00 75 1018.9
20260510112604 7 121 3.2 4.8 0.00 0.00 0.00 75 1018.9
20260510112103 7 121 3.2 4.8 0.00 0.00 0.00 75 1018.9
20260510111603 7 121 3.2 4.8 0.00 0.00 0.00 74 1019.0
20260510111104 8 121 8.0 9.7 0.00 0.00 0.00 74 1018.8
20260510110604 8 121 9.7 12.9 0.00 0.00 0.00 74 1018.8
20260510105603 8 121 12.9 14.5 0.00 0.00 0.00 73 1018.9
20260510104604 8 119 9.7 11.3 0.00 0.00 0.00 71 1018.8
20260510104103 8 121 9.7 11.3 0.00 0.00 0.00 70 1018.8
20260510103603 9 123 11.3 11.3 0.00 0.00 0.00 69 1018.9
20260510103104 9 123 11.3 11.3 0.00 0.00 0.00 69 1018.9
20260510102604 9 123 9.7 11.3 0.00 0.00 0.00 68 1019.0
20260510102103 9 122 9.7 11.3 0.00 0.00 0.00 67 1018.9
20260510101103 10 121 8.0 9.7 0.00 0.00 0.00 66 1018.9
20260510100603 10 148 8.0 14.5 0.00 0.00 0.00 65 1018.9
20260510095603 10 148 11.3 16.1 0.00 0.00 0.00 64 1018.9
20260510095103 10 152 9.7 14.5 0.00 0.00 0.00 64 1018.9
20260510094603 10 154 11.3 14.5 0.00 0.00 0.00 64 1018.9
20260510093603 10 159 8.0 11.3 0.00 0.00 0.00 65 1019.2
20260510092603 10 169 8.0 9.7 0.00 0.00 0.00 64 1019.0
20260510092104 10 169 9.7 11.3 0.00 0.00 0.00 64 1019.1
20260510091604 10 168 8.0 9.7 0.00 0.00 0.00 64 1019.1
20260510091103 10 167 9.7 9.7 0.00 0.00 0.00 64 1019.3
20260510090104 10 167 4.8 8.0 0.00 0.00 0.00 65 1019.6
20260510085604 10 167 4.8 4.8 0.00 0.00 0.00 65 1019.7
20260510084603 11 167 4.8 4.8 0.00 0.00 0.00 63 1019.5
20260510084103 11 167 4.8 8.0 0.00 0.00 0.00 63 1019.4
20260510083603 10 167 8.0 9.7 0.00 0.00 0.00 64 1019.7
20260510083103 10 167 9.7 11.3 0.00 0.00 0.00 64 1019.7
20260510082603 11 167 9.7 12.9 0.00 0.00 0.00 64 1019.5
20260510082104 10 169 14.5 16.1 0.00 0.00 0.00 64 1019.8
20260510081603 10 169 14.5 16.1 0.00 0.00 0.00 65 1019.8
20260510081104 10 169 14.5 14.5 0.00 0.00 0.00 67 1020.0
20260510080603 9 167 11.3 14.5 0.00 0.00 0.00 68 1020.3
20260510080103 9 167 9.7 11.3 0.00 0.00 0.00 69 1020.3
20260510075603 9 169 9.7 11.3 0.00 0.00 0.00 68 1020.3
20260510075103 10 170 11.3 14.5 0.00 0.00 0.00 66 1020.1
20260510074103 9 167 9.7 11.3 0.00 0.00 0.00 68 1020.5
20260510073603 8 167 8.0 9.7 0.00 0.00 0.00 70 1020.5
20260510073104 8 172 8.0 9.7 0.00 0.00 0.00 69 1020.5
20260510072603 9 193 6.4 8.0 0.00 0.00 0.00 68 1020.5
20260510071604 10 193 8.0 11.3 0.00 0.00 0.00 67 1020.3
20260510070604 9 194 9.7 11.3 0.00 0.00 0.00 69 1020.6
20260510070103 9 195 9.7 11.3 0.00 0.00 0.00 68 1020.6
20260510065603 9 188 9.7 9.7 0.00 0.00 0.00 69 1020.7
20260510065104 10 188 8.0 8.0 0.00 0.00 0.00 68 1020.4
20260510064104 10 190 9.7 9.7 0.00 0.00 0.00 68 1020.4
20260510063603 10 190 8.0 9.7 0.00 0.00 0.00 69 1020.5
20260510063103 10 190 8.0 8.0 0.00 0.00 0.00 69 1020.5
20260510062603 10 190 8.0 9.7 0.00 0.00 0.00 69 1020.6
20260510062104 10 190 9.7 9.7 0.00 0.00 0.00 69 1020.6
20260510061603 10 190 8.0 8.0 0.00 0.00 0.00 69 1020.7
20260510061103 10 190 8.0 9.7 0.00 0.00 0.00 69 1020.8
20260510060603 10 190 9.7 11.3 0.00 0.00 0.00 69 1020.9
20260510055603 10 190 9.7 11.3 0.00 0.00 0.00 70 1021.0
20260510054603 10 190 8.0 9.7 0.00 0.00 0.00 71 1021.0
20260510054104 9 190 9.7 12.9 0.00 0.00 0.00 72 1021.0
20260510053604 9 190 11.3 12.9 0.00 0.00 0.00 73 1021.1
20260510053105 10 192 11.3 12.9 0.00 0.00 0.00 71 1021.1
20260510052603 10 187 8.0 9.7 0.00 0.00 0.00 70 1020.8
20260510052104 10 179 9.7 9.7 0.00 0.00 0.00 70 1020.8
20260510050104 10 189 11.3 11.3 0.00 0.00 0.00 73 1022.0
20260510045603 9 190 6.4 11.3 0.00 0.00 0.00 72 1022.1
20260510045103 10 193 1.6 9.7 0.00 0.00 0.00 70 1022.0
20260510044103 10 193 8.0 9.7 0.00 0.00 0.00 73 1022.1
20260510043603 10 191 4.8 8.0 0.00 0.00 0.00 73 1022.1
20260510043104 10 110 3.2 4.8 0.00 0.00 0.00 73 1021.9
20260510042604 11 110 3.2 4.8 0.00 0.00 0.00 69 1021.9
20260510042103 11 110 1.6 3.2 0.00 0.00 0.00 69 1021.7
20260510041603 11 110 1.6 4.8 0.00 0.00 0.00 68 1021.7
20260510041104 12 110 3.2 8.0 0.00 0.00 0.00 65 1021.6
20260510040604 12 89 3.2 4.8 0.00 0.00 0.00 65 1021.6
20260510040103 12 71 3.2 4.8 0.00 0.00 0.00 64 1021.5
20260510035604 12 71 1.6 3.2 0.00 0.00 0.00 65 1021.3
20260510035104 12 71 3.2 4.8 0.00 0.00 0.00 67 1021.3
20260510034604 13 54 1.6 4.8 0.00 0.00 0.00 68 1021.1
20260510034104 13 54 0.0 0.0 0.00 0.00 0.00 64 1021.2
20260510033603 13 54 0.0 0.0 0.00 0.00 0.00 59 1021.3
20260510033104 14 54 0.0 1.6 0.00 0.00 0.00 59 1021.0
20260510032603 14 54 1.6 3.2 0.00 0.00 0.00 59 1020.9
20260510031104 14 54 3.2 4.8 0.00 0.00 0.00 60 1020.7
20260510030103 15 37 3.2 4.8 0.00 0.00 0.00 58 1020.7
20260510025103 15 37 1.6 3.2 0.00 0.00 0.00 56 1020.7
20260510024604 15 37 1.6 3.2 0.00 0.00 0.00 54 1020.8
20260510024103 15 37 0.0 1.6 0.00 0.00 0.00 55 1020.8
20260510023604 16 37 1.6 3.2 0.00 0.00 0.00 55 1020.5
20260510023103 16 37 1.6 3.2 0.00 0.00 0.00 55 1020.4
20260510022603 16 37 4.8 4.8 0.00 0.00 0.00 55 1020.4
20260510022104 16 22 4.8 4.8 0.00 0.00 0.00 53 1020.5
20260510021603 16 22 3.2 4.8 0.00 0.00 0.00 52 1020.6
20260510021103 17 22 3.2 4.8 0.00 0.00 0.00 52 1020.2
20260510015603 17 348 0.0 4.8 0.00 0.00 0.00 53 1020.3
20260510015104 17 342 3.2 8.0 0.00 0.00 0.00 52 1020.3
20260510014603 17 347 3.2 4.8 0.00 0.00 0.00 52 1020.3
20260510014103 17 307 3.2 8.0 0.00 0.00 0.00 50 1020.3
20260510013603 17 355 0.0 3.2 0.00 0.00 0.00 50 1020.3
20260510013103 17 355 1.6 4.8 0.00 0.00 0.00 49 1020.4
20260510012603 18 5 1.6 8.0 0.00 0.00 0.00 49 1020.1
20260510011603 18 3 1.6 8.0 0.00 0.00 0.00 48 1020.2
20260510011104 18 308 4.8 11.3 0.00 0.00 0.00 47 1021.0
20260510010603 18 25 3.2 11.3 0.00 0.00 0.00 47 1021.3
20260510010104 18 17 3.2 8.0 0.00 0.00 0.00 47 1021.0
20260510005603 18 355 4.8 8.0 0.00 0.00 0.00 46 1021.0
20260510005103 19 14 3.2 4.8 0.00 0.00 0.00 46 1021.0
20260510004603 18 340 3.2 8.0 0.00 0.00 0.00 46 1021.0
20260510004103 18 355 3.2 8.0 0.00 0.00 0.00 46 1020.9
20260510003603 18 344 4.8 8.0 0.00 0.00 0.00 44 1021.1
20260510003103 18 307 1.6 8.0 0.00 0.00 0.00 45 1021.2
20260510002603 19 323 4.8 11.3 0.00 0.00 0.00 45 1021.1
20260510002103 19 329 1.6 9.7 0.00 0.00 0.00 45 1021.1
20260510001604 19 349 4.8 11.3 0.00 0.00 0.00 42 1021.1
20260510001104 19 336 3.2 8.0 0.00 0.00 0.00 44 1021.0
20260510000603 19 2 4.8 11.3 0.00 0.00 0.00 41 1021.0
20260510000103 20 352 3.2 11.3 0.00 0.00 0.00 42 1020.9
20260509235604 20 323 4.8 9.7 0.00 0.00 0.00 39 1020.9
20260509235104 19 342 4.8 11.3 0.00 0.00 0.00 40 1021.0
20260509234103 19 331 4.8 16.1 0.00 0.00 0.00 41 1021.0
20260509233603 19 311 3.2 14.5 0.00 0.00 0.00 41 1021.0
20260509233104 20 353 8.0 16.1 0.00 0.00 0.00 39 1021.0
20260509232604 20 346 4.8 8.0 0.00 0.00 0.00 39 1021.0
20260509232103 20 316 3.2 14.5 0.00 0.00 0.00 38 1021.0
20260509231604 20 336 4.8 14.5 0.00 0.00 0.00 38 1021.0
20260509231104 20 0 3.2 9.7 0.00 0.00 0.00 38 1021.0
20260509230603 20 310 3.2 16.1 0.00 0.00 0.00 40 1020.9
20260509230103 20 346 1.6 9.7 0.00 0.00 0.00 41 1020.9
20260509225604 19 8 4.8 14.5 0.00 0.00 0.00 42 1021.1
20260509224103 20 353 4.8 11.3 0.00 0.00 0.00 40 1021.0
20260509223104 19 282 4.8 8.0 0.00 0.00 0.00 42 1021.3
20260509222103 18 335 3.2 9.7 0.00 0.00 0.00 42 1021.4
20260509221604 19 291 6.4 11.3 0.00 0.00 0.00 40 1021.4
20260509221103 19 329 3.2 11.3 0.00 0.00 0.00 43 1021.5
20260509220604 18 310 4.8 11.3 0.00 0.00 0.00 43 1021.7
20260509220103 18 324 3.2 11.3 0.00 0.00 0.00 44 1021.7
20260509215603 17 291 3.2 4.8 0.00 0.00 0.00 43 1022.0
20260509215103 17 189 4.8 9.7 0.00 0.00 0.00 41 1022.2
20260509214604 17 153 6.4 16.1 0.00 0.00 0.00 43 1022.1
20260509214104 17 148 3.2 4.8 0.00 0.00 0.00 43 1022.5
20260509213103 17 199 4.8 16.1 0.00 0.00 0.00 43 1022.3
20260509212103 17 236 4.8 19.3 0.00 0.00 0.00 41 1022.5
20260509211604 18 30 4.8 9.7 0.00 0.00 0.00 44 1022.5
20260509211103 17 18 4.8 14.5 0.00 0.00 0.00 46 1022.4
20260509210603 17 24 6.4 16.1 0.00 0.00 0.00 47 1022.1
20260509210103 16 66 1.6 9.7 0.00 0.00 0.00 48 1022.4
20260509205104 17 311 6.4 16.1 0.00 0.00 0.00 48 1022.3
20260509203603 17 200 3.2 8.0 0.00 0.00 0.00 48 1022.3
20260509203103 17 297 4.8 9.7 0.00 0.00 0.00 48 1022.3
20260509202604 17 23 4.8 16.1 0.00 0.00 0.00 50 1022.3
20260509202103 17 33 3.2 16.1 0.00 0.00 0.00 48 1022.4
20260509201103 16 24 4.8 9.7 0.00 0.00 0.00 49 1022.6
20260509200604 16 52 4.8 9.7 0.00 0.00 0.00 48 1022.3
20260509195604 17 337 4.8 11.3 0.00 0.00 0.00 47 1022.1
20260509195104 17 59 3.2 8.0 0.00 0.00 0.00 52 1022.1
20260509194604 17 350 6.4 11.3 0.00 0.00 0.00 50 1022.4
20260509193604 16 322 4.8 9.7 0.00 0.00 0.00 53 1022.6
20260509192604 16 32 6.4 14.5 0.00 0.00 0.00 53 1023.1
20260509192104 16 322 8.0 11.3 0.00 0.00 0.00 51 1022.9
20260509191103 16 320 6.4 11.3 0.00 0.00 0.00 52 1022.9
20260509190603 16 46 4.8 11.3 0.00 0.00 0.00 50 1022.9
20260509190104 16 32 3.2 8.0 0.00 0.00 0.00 53 1022.9
20260509185604 16 311 4.8 9.7 0.00 0.00 0.00 51 1022.9
20260509185104 16 312 4.8 9.7 0.00 0.00 0.00 52 1022.9
20260509184604 16 339 3.2 9.7 0.00 0.00 0.00 54 1022.8
20260509184103 16 317 4.8 12.9 0.00 0.00 0.00 52 1022.8
20260509183604 16 3 3.2 11.3 0.00 0.00 0.00 57 1022.8
20260509183104 16 60 4.8 16.1 0.00 0.00 0.00 50 1022.8
20260509182104 16 313 3.2 8.0 0.00 0.00 0.00 54 1022.8
20260509181604 16 27 1.6 8.0 0.00 0.00 0.00 54 1022.8
20260509181103 16 33 6.4 16.1 0.00 0.00 0.00 51 1022.9
20260509180603 15 319 4.8 14.5 0.00 0.00 0.00 54 1022.9
20260509180104 15 336 3.2 14.5 0.00 0.00 0.00 53 1023.0
20260509175604 15 325 4.8 19.3 0.00 0.00 0.00 52 1022.9
20260509175104 15 314 4.8 12.9 0.00 0.00 0.00 54 1022.9
20260509174604 14 2 4.8 9.7 0.00 0.00 0.00 54 1023.1
20260509174104 14 337 6.4 11.3 0.00 0.00 0.00 55 1023.1
20260509173604 14 288 4.8 8.0 0.00 0.00 0.00 54 1023.1
20260509173104 13 285 4.8 9.7 0.00 0.00 0.00 55 1023.1
20260509172103 13 266 8.0 14.5 0.00 0.00 0.00 53 1023.1
20260509171604 13 321 1.6 8.0 0.00 0.00 0.00 54 1023.4
20260509171104 12 292 8.0 11.3 0.00 0.00 0.00 54 1023.4
20260509170603 12 263 8.0 11.3 0.00 0.00 0.00 53 1023.5
20260509165103 12 279 14.5 19.3 0.00 0.00 0.00 55 1023.5
20260509164603 12 268 9.7 19.3 0.00 0.00 0.00 55 1023.5
20260509164103 12 296 8.0 16.1 0.00 0.00 0.00 57 1023.5
20260509163104 13 280 11.3 19.3 0.00 0.00 0.00 54 1023.3
20260509162604 12 309 6.4 14.5 0.00 0.00 0.00 57 1023.6
20260509162104 12 310 8.0 12.9 0.00 0.00 0.00 54 1023.6
20260509161603 12 243 1.6 11.3 0.00 0.00 0.00 57 1023.6
20260509161104 12 265 11.3 16.1 0.00 0.00 0.00 56 1023.5
20260509160604 12 251 11.3 16.1 0.00 0.00 0.00 56 1023.5
20260509160104 12 282 8.0 9.7 0.00 0.00 0.00 58 1023.5
20260509155604 12 272 9.7 16.1 0.00 0.00 0.00 57 1023.4
20260509155103 12 250 14.5 19.3 0.00 0.00 0.00 56 1023.5
20260509154603 12 270 9.7 19.3 0.00 0.00 0.00 57 1023.4
20260509154104 12 262 3.2 11.3 0.00 0.00 0.00 55 1023.3
20260509153603 12 276 8.0 16.1 0.00 0.00 0.00 57 1023.3
20260509153104 12 269 3.2 16.1 0.00 0.00 0.00 57 1023.3
20260509152103 12 61 1.6 4.8 0.00 0.00 0.00 60 1023.2
20260509151603 12 61 3.2 4.8 0.00 0.00 0.00 60 1023.2
20260509151103 11 50 3.2 4.8 0.00 0.00 0.00 62 1023.3
20260509150604 11 104 3.2 8.0 0.00 0.00 0.00 60 1023.4
20260509150103 11 78 4.8 9.7 0.00 0.00 0.00 60 1023.3
20260509145605 12 55 4.8 4.8 0.00 0.00 0.00 60 1023.2
20260509144604 12 37 3.2 4.8 0.00 0.00 0.00 58 1023.2
20260509144103 12 37 3.2 4.8 0.00 0.00 0.00 62 1023.1
20260509143604 12 39 4.8 8.0 0.00 0.00 0.00 58 1023.2
20260509143103 12 31 1.6 8.0 0.00 0.00 0.00 59 1023.2
20260509142603 12 29 3.2 4.8 0.00 0.00 0.00 58 1023.1
20260509142103 11 17 3.2 4.8 0.00 0.00 0.00 60 1023.1